Home   Weather   Kakata   Past weeks
Flag for Liberia

Past Weather in Kakata, Liberia — Yesterday and Last 2 Weeks

Now
79 °F

Passing clouds.


Feels Like: 83 °F
Forecast: N/A
Wind: No wind

Location: Roberts Field

Current Time: Feb 21, 2019 at 11:05:39 pm

Latest Report: Feb 21, 2019 at 10:00 pm


Visibility: 5 mi

Pressure: 29.95 "Hg

Humidity: 94%

Dew Point: 77 °F

Location of KakataLocation

Past Weather in Kakata — Graph

°F

Kakata Temperature Yesterday

Maximum temperature yesterday: 90 °F (at 2:00 pm)
Minimum temperature yesterday: 75 °F (at 8:00 am)
Average temperature yesterday: 82 °F

High & Low Weather Summary for the Past Weeks

 TemperatureHumidityPressure
High95 °F (Feb 17, 2:00 pm)100% (Feb 9, 1:00 am)29.98 "Hg (Feb 9, 1:00 am)
Low73 °F (Feb 13, 6:00 am)49% (Feb 9, 4:00 pm)29.71 "Hg (Feb 7, 4:00 pm)
Average82 °F81%29.84 "Hg
* Reported Feb 6 9:00 pm — Feb 21 9:00 pm, Kakata. Weather by CustomWeather, © 2019

Note: Actual official high and low records may vary slightly from our data, if they occured in-between our weather recording intervals... More about our weather records

Advertising

Kakata Weather History for the Previous 24 Hours

Scroll right to see more
 ConditionsComfort  
Time TempWeatherWind HumidityBarometerVisibility
9:00 pm
Thu, Feb 21
79 °FPassing clouds.No wind94%29.92 "Hg5 mi
8:00 pm81 °FPassing clouds.No wind84%29.89 "Hg5 mi
7:00 pm82 °FPassing clouds.6 mph84%29.86 "Hg6 mi
6:00 pm86 °FPassing clouds.7 mph70%29.86 "HgN/A
5:00 pm88 °FPassing clouds.10 mph62%29.83 "HgN/A
4:00 pm90 °FPassing clouds.13 mph63%29.83 "HgN/A
3:00 pm91 °FPassing clouds.15 mph59%29.86 "HgN/A
2:00 pm91 °FPartly sunny.15 mph59%29.89 "HgN/A
1:00 pm91 °FPartly sunny.12 mph59%29.89 "HgN/A
12:00 pm88 °FPartly sunny.7 mph66%29.92 "HgN/A
11:00 am88 °FPartly sunny.5 mph66%29.95 "HgN/A
10:00 am82 °FScattered clouds.6 mph79%29.95 "HgN/A
9:00 am79 °FPartly sunny.3 mph89%29.95 "Hg5 mi
8:00 am75 °FScattered clouds.No wind94%29.92 "Hg5 mi
7:00 am73 °FPassing clouds.No wind94%29.89 "Hg5 mi
6:00 am73 °FPassing clouds.No wind94%29.89 "Hg5 mi
5:00 am75 °FPassing clouds.No wind94%29.86 "Hg5 mi
4:00 am75 °FPassing clouds.No wind94%29.86 "Hg5 mi
3:00 am75 °FPassing clouds.No wind94%29.89 "Hg5 mi
2:00 am75 °FPassing clouds.No wind94%29.89 "Hg5 mi
1:00 am75 °FPassing clouds.No wind94%29.92 "Hg5 mi
12:00 am77 °FPassing clouds.No wind89%29.92 "Hg5 mi
11:00 pm
Wed, Feb 20
77 °FPassing clouds.No wind94%29.89 "Hg5 mi
Weather by CustomWeather, © 2019

See weather overview